Location: The Jewett Observatory
(46.7288°N, 117.1525°W)
Time: 18:48:56
(UTC-07:00)

Meteor 1-28 Rocket - Visible Passes

Search period start: 31 October 2014 00:00
Search period end: 09 November 2014 23:00
Orbit: 512 x 536 km, 97.3° (Epoch: 31 October)

Date Brightness Start Highest point End Pass type
(mag) Time Alt. Az. Time Alt. Az. Time Alt. Az.
02 Nov 6.3 05:48:02 10° E 05:49:22 12° ENE 05:50:41 10° NE visible
08 Nov 5.9 06:07:11 10° ESE 06:09:50 19° ENE 06:12:30 10° NNE visible
09 Nov 6.1 05:55:38 10° E 05:57:41 14° ENE 05:59:45 10° NNE visible
